SHIYAN-12 02 (SY-12 02)

Last updated on Wed Sep 09 2026 00:03:03 GMT+0000 (Coordinated Universal Time)

1 50322U 21129B 26250.43948608 -.00000203 00000+0 00000+0 0 9998 2 50322 3.8786 78.7419 0004048 97.5003 116.3181 1.00442890 17324
UTC large
Height (km)
Speed (km/s)
/
Latitude / Longitude
Inclination (degrees)
Orbital Period (minutes)
Azimuth
Elevation
Range (km)
Doppler Factor

Next 0 passes for location: London (51.5072 / 0.1276)

No passes found over London.
SHIYAN-12 02 (SY-12 02)